Year,Month,Day,Hour,Minute,Value (Times are PST for temperature in C)
2019,03,02,00,00,-2.10
2019,03,02,00,01,-2.10
2019,03,02,00,03,-2.10
2019,03,02,00,04,-2.20
2019,03,02,00,06,-2.20
2019,03,02,00,08,-2.20
2019,03,02,00,09,-2.20
2019,03,02,00,10,-2.20
2019,03,02,00,11,-2.20
2019,03,02,00,12,-2.30
2019,03,02,00,13,-2.30
2019,03,02,00,14,-2.30
2019,03,02,00,15,-2.30
2019,03,02,00,16,-2.30
2019,03,02,00,17,-2.30
2019,03,02,00,19,-2.30
2019,03,02,00,21,-2.30
2019,03,02,00,22,-2.30
2019,03,02,00,23,-2.30
2019,03,02,00,25,-2.30
2019,03,02,00,26,-2.30
2019,03,02,00,27,-2.30
2019,03,02,00,28,-2.40
2019,03,02,00,30,-2.40
2019,03,02,00,31,-2.40
2019,03,02,00,32,-2.40
2019,03,02,00,34,-2.40
2019,03,02,00,35,-2.40
2019,03,02,00,36,-2.40
2019,03,02,00,37,-2.40
2019,03,02,00,40,-2.40
2019,03,02,00,41,-2.40
2019,03,02,00,43,-2.40
2019,03,02,00,45,-2.50
2019,03,02,00,47,-2.50
2019,03,02,00,49,-2.50
2019,03,02,00,51,-2.50
2019,03,02,00,52,-2.60
2019,03,02,00,54,-2.50
2019,03,02,00,57,-2.60
2019,03,02,00,58,-2.60
2019,03,02,00,59,-2.60
2019,03,02,01,02,-2.60
2019,03,02,01,03,-2.60
2019,03,02,01,04,-2.60
2019,03,02,01,06,-2.60
2019,03,02,01,08,-2.60
2019,03,02,01,09,-2.60
2019,03,02,01,11,-2.60
2019,03,02,01,14,-2.60
2019,03,02,01,15,-2.60
2019,03,02,01,16,-2.60
2019,03,02,01,17,-2.60
2019,03,02,01,19,-2.60
2019,03,02,01,21,-2.70
2019,03,02,01,24,-2.70
2019,03,02,01,25,-2.70
2019,03,02,01,27,-2.70
2019,03,02,01,29,-2.80
2019,03,02,01,30,-2.80
2019,03,02,01,32,-2.80
2019,03,02,01,33,-2.80
2019,03,02,01,35,-2.80
2019,03,02,01,36,-2.80
2019,03,02,01,37,-2.80
2019,03,02,01,38,-2.80
2019,03,02,01,39,-2.80
2019,03,02,01,41,-2.90
2019,03,02,01,43,-2.90
2019,03,02,01,44,-2.90
2019,03,02,01,46,-2.90
2019,03,02,01,47,-2.90
2019,03,02,01,48,-3.00
2019,03,02,01,49,-3.00
2019,03,02,01,51,-3.00
2019,03,02,01,52,-3.00
2019,03,02,01,53,-3.00
2019,03,02,01,54,-3.00
2019,03,02,01,57,-3.00
2019,03,02,01,58,-3.00
2019,03,02,02,00,-3.00
2019,03,02,02,01,-3.00
2019,03,02,02,02,-3.10
2019,03,02,02,03,-3.10
2019,03,02,02,06,-3.10
2019,03,02,02,07,-3.10
2019,03,02,02,08,-3.10
2019,03,02,02,09,-3.10
2019,03,02,02,11,-3.20
2019,03,02,02,13,-3.20
2019,03,02,02,14,-3.20
2019,03,02,02,16,-3.20
2019,03,02,02,17,-3.20
2019,03,02,02,18,-3.30
2019,03,02,02,21,-3.30
2019,03,02,02,22,-3.30
2019,03,02,02,23,-3.30
2019,03,02,02,24,-3.30
2019,03,02,02,25,-3.30
2019,03,02,02,26,-3.30
2019,03,02,02,27,-3.30
2019,03,02,02,29,-3.30
2019,03,02,02,30,-3.30
2019,03,02,02,31,-3.30
2019,03,02,02,32,-3.30
2019,03,02,02,35,-3.30
2019,03,02,02,36,-3.30
2019,03,02,02,38,-3.30
2019,03,02,02,40,-3.30
2019,03,02,02,42,-3.40
2019,03,02,02,43,-3.40
2019,03,02,02,44,-3.40
2019,03,02,02,45,-3.40
2019,03,02,02,46,-3.40
2019,03,02,02,48,-3.40
2019,03,02,02,49,-3.40
2019,03,02,02,51,-3.40
2019,03,02,02,53,-3.40
2019,03,02,02,54,-3.40
2019,03,02,02,55,-3.50
2019,03,02,02,57,-3.50
2019,03,02,02,59,-3.50
2019,03,02,03,00,-3.50
2019,03,02,03,01,-3.50
2019,03,02,03,02,-3.60
2019,03,02,03,04,-3.60
2019,03,02,03,06,-3.60
2019,03,02,03,07,-3.60
2019,03,02,03,09,-3.60
2019,03,02,03,10,-3.70
2019,03,02,03,11,-3.70
2019,03,02,03,12,-3.70
2019,03,02,03,13,-3.70
2019,03,02,03,15,-3.70
2019,03,02,03,17,-3.70
2019,03,02,03,18,-3.70
2019,03,02,03,19,-3.70
2019,03,02,03,21,-3.70
2019,03,02,03,22,-3.70
2019,03,02,03,24,-3.80
2019,03,02,03,26,-3.80
2019,03,02,03,28,-3.80
2019,03,02,03,29,-3.70
2019,03,02,03,30,-3.70
2019,03,02,03,32,-3.70
2019,03,02,03,34,-3.70
2019,03,02,03,35,-3.70
2019,03,02,03,36,-3.70
2019,03,02,03,37,-3.70
2019,03,02,03,38,-3.70
2019,03,02,03,40,-3.70
2019,03,02,03,42,-3.80
2019,03,02,03,43,-3.80
2019,03,02,03,44,-3.80
2019,03,02,03,45,-3.80
2019,03,02,03,46,-3.80
2019,03,02,03,47,-3.80
2019,03,02,03,49,-3.80
2019,03,02,03,51,-3.80
2019,03,02,03,53,-3.80
2019,03,02,03,54,-3.80
2019,03,02,03,55,-3.80
2019,03,02,03,56,-3.80
2019,03,02,03,57,-3.90
2019,03,02,03,58,-3.90
2019,03,02,03,59,-3.90
2019,03,02,04,00,-3.90
2019,03,02,04,01,-3.90
2019,03,02,04,02,-3.90
2019,03,02,04,04,-3.90
2019,03,02,04,06,-3.90
2019,03,02,04,07,-3.90
2019,03,02,04,09,-3.90
2019,03,02,04,10,-3.90
2019,03,02,04,11,-4.00
2019,03,02,04,13,-4.00
2019,03,02,04,14,-4.00
2019,03,02,04,15,-4.00
2019,03,02,04,17,-4.00
2019,03,02,04,18,-4.00
2019,03,02,04,20,-4.10
2019,03,02,04,21,-4.10
2019,03,02,04,22,-4.00
2019,03,02,04,23,-4.00
2019,03,02,04,25,-4.10
2019,03,02,04,27,-4.10
2019,03,02,04,28,-4.10
2019,03,02,04,29,-4.10
2019,03,02,04,30,-4.10
2019,03,02,04,31,-4.10
2019,03,02,04,33,-4.10
2019,03,02,04,34,-4.10
2019,03,02,04,36,-4.10
2019,03,02,04,37,-4.20
2019,03,02,04,38,-4.20
2019,03,02,04,40,-4.20
2019,03,02,04,41,-4.20
2019,03,02,04,42,-4.20
2019,03,02,04,43,-4.20
2019,03,02,04,45,-4.20
2019,03,02,04,47,-4.20
2019,03,02,04,48,-4.20
2019,03,02,04,50,-4.20
2019,03,02,04,52,-4.20
2019,03,02,04,53,-4.20
2019,03,02,04,55,-4.20
2019,03,02,04,56,-4.20
2019,03,02,04,57,-4.20
2019,03,02,04,58,-4.20
2019,03,02,04,59,-4.20
2019,03,02,05,01,-4.20
2019,03,02,05,02,-4.20
2019,03,02,05,03,-4.20
2019,03,02,05,04,-4.20
2019,03,02,05,05,-4.20
2019,03,02,05,06,-4.20
2019,03,02,05,07,-4.20
2019,03,02,05,08,-4.30
2019,03,02,05,09,-4.30
2019,03,02,05,10,-4.30
2019,03,02,05,12,-4.30
2019,03,02,05,13,-4.30
2019,03,02,05,14,-4.30
2019,03,02,05,15,-4.30
2019,03,02,05,17,-4.30
2019,03,02,05,18,-4.30
2019,03,02,05,19,-4.30
2019,03,02,05,20,-4.30
2019,03,02,05,21,-4.30
2019,03,02,05,22,-4.30
2019,03,02,05,23,-4.30
2019,03,02,05,24,-4.30
2019,03,02,05,25,-4.30
2019,03,02,05,27,-4.30
2019,03,02,05,28,-4.30
2019,03,02,05,29,-4.40
2019,03,02,05,31,-4.40
2019,03,02,05,33,-4.40
2019,03,02,05,34,-4.40
2019,03,02,05,35,-4.40
2019,03,02,05,36,-4.40
2019,03,02,05,37,-4.40
2019,03,02,05,38,-4.40
2019,03,02,05,39,-4.40
2019,03,02,05,40,-4.40
2019,03,02,05,42,-4.40
2019,03,02,05,44,-4.40
2019,03,02,05,45,-4.40
2019,03,02,05,46,-4.40
2019,03,02,05,47,-4.50
2019,03,02,05,48,-4.50
2019,03,02,05,49,-4.50
2019,03,02,05,51,-4.50
2019,03,02,05,52,-4.50
2019,03,02,05,53,-4.50
2019,03,02,05,54,-4.50
2019,03,02,05,55,-4.60
2019,03,02,05,56,-4.60
2019,03,02,05,58,-4.60
2019,03,02,05,59,-4.60
2019,03,02,06,01,-4.60
2019,03,02,06,03,-4.60
2019,03,02,06,04,-4.60
2019,03,02,06,05,-4.60
2019,03,02,06,06,-4.60
2019,03,02,06,07,-4.60
2019,03,02,06,09,-4.60
2019,03,02,06,11,-4.60
2019,03,02,06,12,-4.60
2019,03,02,06,13,-4.70
2019,03,02,06,14,-4.70
2019,03,02,06,15,-4.70
2019,03,02,06,16,-4.70
2019,03,02,06,17,-4.70
2019,03,02,06,18,-4.70
2019,03,02,06,19,-4.70
2019,03,02,06,20,-4.70
2019,03,02,06,21,-4.70
2019,03,02,06,22,-4.70
2019,03,02,06,23,-4.70
2019,03,02,06,25,-4.70
2019,03,02,06,26,-4.70
2019,03,02,06,28,-4.70
2019,03,02,06,30,-4.80
2019,03,02,06,31,-4.80
2019,03,02,06,32,-4.80
2019,03,02,06,33,-4.80
2019,03,02,06,36,-4.80
2019,03,02,06,37,-4.80
2019,03,02,06,38,-4.80
2019,03,02,06,39,-4.80
2019,03,02,06,40,-4.80
2019,03,02,06,41,-4.80
2019,03,02,06,42,-4.80
2019,03,02,06,44,-4.80
2019,03,02,06,46,-4.80
2019,03,02,06,47,-4.80
2019,03,02,06,49,-4.80
2019,03,02,06,50,-4.80
2019,03,02,06,51,-4.80
2019,03,02,06,52,-4.80
2019,03,02,06,53,-4.80
2019,03,02,06,54,-4.80
2019,03,02,06,56,-4.80
2019,03,02,06,58,-4.80
2019,03,02,06,59,-4.80
2019,03,02,07,01,-4.80
2019,03,02,07,03,-4.80
2019,03,02,07,04,-4.80
2019,03,02,07,05,-4.80
2019,03,02,07,07,-4.80
2019,03,02,07,08,-4.80
2019,03,02,07,09,-4.80
2019,03,02,07,10,-4.90
2019,03,02,07,11,-4.90
2019,03,02,07,12,-4.90
2019,03,02,07,13,-4.90
2019,03,02,07,15,-4.90
2019,03,02,07,16,-4.90
2019,03,02,07,17,-4.90
2019,03,02,07,18,-4.90
2019,03,02,07,20,-4.90
2019,03,02,07,21,-4.90
2019,03,02,07,22,-4.90
2019,03,02,07,23,-4.90
2019,03,02,07,25,-4.90
2019,03,02,07,26,-4.90
2019,03,02,07,28,-4.90
2019,03,02,07,29,-4.80
2019,03,02,07,30,-4.80
2019,03,02,07,31,-4.80
2019,03,02,07,33,-4.80
2019,03,02,07,34,-4.80
2019,03,02,07,35,-4.80
2019,03,02,07,36,-4.80
2019,03,02,07,37,-4.80
2019,03,02,07,39,-4.80
2019,03,02,07,40,-4.80
2019,03,02,07,41,-4.70
2019,03,02,07,42,-4.70
2019,03,02,07,43,-4.70
2019,03,02,07,44,-4.70
2019,03,02,07,46,-4.70
2019,03,02,07,47,-4.70
2019,03,02,07,49,-4.70
2019,03,02,07,50,-4.70
2019,03,02,07,51,-4.70
2019,03,02,07,52,-4.60
2019,03,02,07,53,-4.60
2019,03,02,07,55,-4.60
2019,03,02,07,56,-4.60
2019,03,02,07,58,-4.50
2019,03,02,07,59,-4.50
2019,03,02,08,01,-4.40
2019,03,02,08,03,-4.40
2019,03,02,08,04,-4.40
2019,03,02,08,05,-4.40
2019,03,02,08,06,-4.30
2019,03,02,08,07,-4.30
2019,03,02,08,08,-4.30
2019,03,02,08,10,-4.20
2019,03,02,08,11,-4.20
2019,03,02,08,12,-4.10
2019,03,02,08,14,-4.00
2019,03,02,08,15,-4.00
2019,03,02,08,16,-3.90
2019,03,02,08,17,-3.90
2019,03,02,08,19,-3.70
2019,03,02,08,20,-3.70
2019,03,02,08,21,-3.60
2019,03,02,08,22,-3.60
2019,03,02,08,23,-3.50
2019,03,02,08,25,-3.40
2019,03,02,08,26,-3.30
2019,03,02,08,27,-3.30
2019,03,02,08,28,-3.30
2019,03,02,08,29,-3.20
2019,03,02,08,30,-3.20
2019,03,02,08,32,-3.10
2019,03,02,08,33,-3.10
2019,03,02,08,34,-3.00
2019,03,02,08,35,-2.90
2019,03,02,08,37,-2.80
2019,03,02,08,38,-2.80
2019,03,02,08,39,-2.70
2019,03,02,08,40,-2.70
2019,03,02,08,41,-2.60
2019,03,02,08,43,-2.50
2019,03,02,08,44,-2.40
2019,03,02,08,46,-2.30
2019,03,02,08,47,-2.30
2019,03,02,08,48,-2.20
2019,03,02,08,49,-2.20
2019,03,02,08,50,-2.20
2019,03,02,08,51,-2.10
2019,03,02,08,52,-2.10
2019,03,02,08,53,-1.90
2019,03,02,08,54,-1.90
2019,03,02,08,55,-1.80
2019,03,02,08,56,-1.80
2019,03,02,08,57,-1.70
2019,03,02,08,58,-1.70
2019,03,02,08,59,-1.60
2019,03,02,09,00,-1.60
2019,03,02,09,01,-1.60
2019,03,02,09,02,-1.40
2019,03,02,09,03,-1.40
2019,03,02,09,05,-1.30
2019,03,02,09,06,-1.30
2019,03,02,09,07,-1.20
2019,03,02,09,08,-1.20
2019,03,02,09,09,-1.10
2019,03,02,09,10,-1.10
2019,03,02,09,11,-1.00
2019,03,02,09,12,-1.00
2019,03,02,09,13,-0.90
2019,03,02,09,14,-0.90
2019,03,02,09,16,-0.90
2019,03,02,09,18,-0.80
2019,03,02,09,19,-0.80
2019,03,02,09,20,-0.70
2019,03,02,09,22,-0.70
2019,03,02,09,24,-0.60
2019,03,02,09,25,-0.50
2019,03,02,09,26,-0.40
2019,03,02,09,27,-0.40
2019,03,02,09,28,-0.30
2019,03,02,09,29,-0.30
2019,03,02,09,30,-0.20
2019,03,02,09,31,-0.20
2019,03,02,09,32,-0.10
2019,03,02,09,33,-0.10
2019,03,02,09,34,0.00
2019,03,02,09,35,0.10
2019,03,02,09,36,0.20
2019,03,02,09,37,0.20
2019,03,02,09,38,0.30
2019,03,02,09,39,0.30
2019,03,02,09,40,0.40
2019,03,02,09,41,0.50
2019,03,02,09,42,0.60
2019,03,02,09,43,0.70
2019,03,02,09,44,0.70
2019,03,02,09,45,0.80
2019,03,02,09,46,0.90
2019,03,02,09,47,1.00
2019,03,02,09,48,1.10
2019,03,02,09,49,1.10
2019,03,02,09,50,1.20
2019,03,02,09,51,1.20
2019,03,02,09,52,1.30
2019,03,02,09,54,1.40
2019,03,02,09,55,1.50
2019,03,02,09,56,1.60
2019,03,02,09,57,1.60
2019,03,02,09,58,1.70
2019,03,02,09,59,1.70
2019,03,02,10,00,1.80
2019,03,02,10,01,1.80
2019,03,02,10,02,1.90
2019,03,02,10,04,2.10
2019,03,02,10,05,2.20
2019,03,02,10,06,2.20
2019,03,02,10,07,2.30
2019,03,02,10,09,2.30
2019,03,02,10,10,2.20
2019,03,02,10,11,2.10
2019,03,02,10,12,2.10
2019,03,02,10,13,2.10
2019,03,02,10,14,2.00
2019,03,02,10,15,2.00
2019,03,02,10,16,2.00
2019,03,02,10,17,2.00
2019,03,02,10,18,2.00
2019,03,02,10,19,2.00
2019,03,02,10,20,2.10
2019,03,02,10,21,2.10
2019,03,02,10,22,2.20
2019,03,02,10,23,2.20
2019,03,02,10,24,2.30
2019,03,02,10,26,2.50
2019,03,02,10,27,2.60
2019,03,02,10,28,2.70
2019,03,02,10,29,2.80
2019,03,02,10,30,2.90
2019,03,02,10,31,3.10
2019,03,02,10,32,3.20
2019,03,02,10,33,3.30
2019,03,02,10,34,3.40
2019,03,02,10,35,3.50
2019,03,02,10,36,3.60
2019,03,02,10,37,3.70
2019,03,02,10,38,3.80
2019,03,02,10,39,3.80
2019,03,02,10,40,3.90
2019,03,02,10,41,3.90
2019,03,02,10,42,4.00
2019,03,02,10,43,4.10
2019,03,02,10,44,4.10
2019,03,02,10,45,4.10
2019,03,02,10,46,4.10
2019,03,02,10,47,4.10
2019,03,02,10,49,4.10
2019,03,02,10,50,4.10
2019,03,02,10,51,4.10
2019,03,02,10,52,4.10
2019,03,02,10,53,4.00
2019,03,02,10,54,4.00
2019,03,02,10,55,4.00
2019,03,02,10,56,4.10
2019,03,02,10,57,4.10
2019,03,02,10,58,4.10
2019,03,02,10,59,4.10
2019,03,02,11,00,4.10
2019,03,02,11,02,4.20
2019,03,02,11,03,4.20
2019,03,02,11,04,4.20
2019,03,02,11,06,4.30
2019,03,02,11,07,4.30
2019,03,02,11,08,4.40
2019,03,02,11,10,4.60
2019,03,02,11,11,4.70
2019,03,02,11,12,4.80
2019,03,02,11,13,4.90
2019,03,02,11,14,5.00
2019,03,02,11,15,5.10
2019,03,02,11,16,5.20
2019,03,02,11,17,5.30
2019,03,02,11,19,5.30
2019,03,02,11,20,5.30
2019,03,02,11,21,5.30
2019,03,02,11,22,5.30
2019,03,02,11,23,5.30
2019,03,02,11,24,5.30
2019,03,02,11,25,5.30
2019,03,02,11,26,5.30
2019,03,02,11,28,5.40
2019,03,02,11,29,5.40
2019,03,02,11,30,5.40
2019,03,02,11,32,5.40
2019,03,02,11,34,5.60
2019,03,02,11,35,5.60
2019,03,02,11,37,5.70
2019,03,02,11,38,5.70
2019,03,02,11,39,5.80
2019,03,02,11,41,6.00
2019,03,02,11,42,6.10
2019,03,02,11,43,6.20
2019,03,02,11,44,6.20
2019,03,02,11,45,6.30
2019,03,02,11,47,6.40
2019,03,02,11,49,6.60
2019,03,02,11,51,6.70
2019,03,02,11,52,6.80
2019,03,02,11,53,6.80
2019,03,02,11,54,6.90
2019,03,02,11,55,7.00
2019,03,02,11,57,7.10
2019,03,02,11,58,7.10
2019,03,02,12,00,7.20
2019,03,02,12,01,7.20
2019,03,02,12,03,7.10
2019,03,02,12,04,7.10
2019,03,02,12,05,7.10
2019,03,02,12,06,7.00
2019,03,02,12,07,7.00
2019,03,02,12,09,6.90
2019,03,02,12,10,6.90
2019,03,02,12,11,6.90
2019,03,02,12,12,6.90
2019,03,02,12,14,7.00
2019,03,02,12,16,7.10
2019,03,02,12,17,7.10
2019,03,02,12,19,7.20
2019,03,02,12,20,7.20
2019,03,02,12,22,7.30
2019,03,02,12,23,7.40
2019,03,02,12,24,7.40
2019,03,02,12,25,7.60
2019,03,02,12,26,7.70
2019,03,02,12,27,7.70
2019,03,02,12,28,7.70
2019,03,02,12,30,7.80
2019,03,02,12,31,7.80
2019,03,02,12,32,7.90
2019,03,02,12,34,8.00
2019,03,02,12,35,8.10
2019,03,02,12,36,8.20
2019,03,02,12,38,8.30
2019,03,02,12,39,8.30
2019,03,02,12,40,8.40
2019,03,02,12,41,8.40
2019,03,02,12,42,8.50
2019,03,02,12,44,8.40
2019,03,02,12,45,8.40
2019,03,02,12,46,8.50
2019,03,02,12,47,8.50
2019,03,02,12,48,8.40
2019,03,02,12,51,8.40
2019,03,02,12,52,8.40
2019,03,02,12,53,8.40
2019,03,02,12,54,8.50
2019,03,02,12,55,8.60
2019,03,02,12,56,8.60
2019,03,02,12,57,8.60
2019,03,02,12,59,8.70
2019,03,02,13,01,8.60
2019,03,02,13,03,8.60
2019,03,02,13,04,8.70
2019,03,02,13,05,8.70
2019,03,02,13,06,8.70
2019,03,02,13,07,8.60
2019,03,02,13,08,8.60
2019,03,02,13,09,8.60
2019,03,02,13,10,8.60
2019,03,02,13,12,8.60
2019,03,02,13,13,8.70
2019,03,02,13,14,8.70
2019,03,02,13,16,8.80
2019,03,02,13,17,8.80
2019,03,02,13,18,8.90
2019,03,02,13,19,8.90
2019,03,02,13,20,9.00
2019,03,02,13,21,9.00
2019,03,02,13,22,9.00
2019,03,02,13,23,8.90
2019,03,02,13,24,8.90
2019,03,02,13,25,8.80
2019,03,02,13,26,8.80
2019,03,02,13,27,8.80
2019,03,02,13,28,8.80
2019,03,02,13,29,8.80
2019,03,02,13,30,8.80
2019,03,02,13,32,8.80
2019,03,02,13,33,8.80
2019,03,02,13,34,8.80
2019,03,02,13,35,8.80
2019,03,02,13,37,8.80
2019,03,02,13,38,8.80
2019,03,02,13,39,8.80
2019,03,02,13,40,8.80
2019,03,02,13,41,8.80
2019,03,02,13,42,8.80
2019,03,02,13,43,8.80
2019,03,02,13,44,8.70
2019,03,02,13,45,8.70
2019,03,02,13,46,8.60
2019,03,02,13,47,8.60
2019,03,02,13,49,8.70
2019,03,02,13,50,8.70
2019,03,02,13,51,8.70
2019,03,02,13,52,8.70
2019,03,02,13,53,8.70
2019,03,02,13,54,8.70
2019,03,02,13,55,8.70
2019,03,02,13,56,8.70
2019,03,02,13,57,8.70
2019,03,02,13,58,8.70
2019,03,02,13,59,8.60
2019,03,02,14,00,8.60
2019,03,02,14,01,8.60
2019,03,02,14,02,8.60
2019,03,02,14,03,8.60
2019,03,02,14,04,8.60
2019,03,02,14,05,8.60
2019,03,02,14,06,8.60
2019,03,02,14,07,8.60
2019,03,02,14,08,8.60
2019,03,02,14,09,8.60
2019,03,02,14,10,8.60
2019,03,02,14,11,8.60
2019,03,02,14,12,8.60
2019,03,02,14,13,8.60
2019,03,02,14,14,8.60
2019,03,02,14,16,8.50
2019,03,02,14,17,8.50
2019,03,02,14,19,8.50
2019,03,02,14,20,8.50
2019,03,02,14,21,8.50
2019,03,02,14,22,8.60
2019,03,02,14,24,8.50
2019,03,02,14,25,8.50
2019,03,02,14,26,8.50
2019,03,02,14,27,8.50
2019,03,02,14,28,8.60
2019,03,02,14,29,8.60
2019,03,02,14,30,8.60
2019,03,02,14,31,8.60
2019,03,02,14,32,8.60
2019,03,02,14,33,8.60
2019,03,02,14,34,8.50
2019,03,02,14,35,8.50
2019,03,02,14,36,8.50
2019,03,02,14,38,8.40
2019,03,02,14,39,8.50
2019,03,02,14,41,8.50
2019,03,02,14,42,8.50
2019,03,02,14,43,8.50
2019,03,02,14,44,8.50
2019,03,02,14,45,8.40
2019,03,02,14,46,8.40
2019,03,02,14,47,8.50
2019,03,02,14,48,8.60
2019,03,02,14,49,8.60
2019,03,02,14,51,8.70
2019,03,02,14,52,8.80
2019,03,02,14,54,8.80
2019,03,02,14,55,8.80
2019,03,02,14,57,8.80
2019,03,02,14,59,8.70
2019,03,02,15,00,8.70
2019,03,02,15,02,8.80
2019,03,02,15,03,8.80
2019,03,02,15,04,8.80
2019,03,02,15,05,8.80
2019,03,02,15,06,8.80
2019,03,02,15,08,8.70
2019,03,02,15,09,8.70
2019,03,02,15,10,8.70
2019,03,02,15,11,8.70
2019,03,02,15,13,8.70
2019,03,02,15,14,8.70
2019,03,02,15,15,8.70
2019,03,02,15,16,8.70
2019,03,02,15,18,8.70
2019,03,02,15,19,8.70
2019,03,02,15,20,8.70
2019,03,02,15,21,8.80
2019,03,02,15,22,8.80
2019,03,02,15,23,8.80
2019,03,02,15,24,8.80
2019,03,02,15,26,8.70
2019,03,02,15,27,8.70
2019,03,02,15,28,8.80
2019,03,02,15,29,8.80
2019,03,02,15,30,8.80
2019,03,02,15,31,8.80
2019,03,02,15,32,8.80
2019,03,02,15,33,8.80
2019,03,02,15,34,8.80
2019,03,02,15,36,8.80
2019,03,02,15,37,8.80
2019,03,02,15,38,8.80
2019,03,02,15,39,8.80
2019,03,02,15,40,8.80
2019,03,02,15,41,8.90
2019,03,02,15,42,8.90
2019,03,02,15,43,8.90
2019,03,02,15,44,8.90
2019,03,02,15,45,8.90
2019,03,02,15,46,8.90
2019,03,02,15,48,8.90
2019,03,02,15,49,8.90
2019,03,02,15,50,8.90
2019,03,02,15,51,8.90
2019,03,02,15,52,8.90
2019,03,02,15,54,8.80
2019,03,02,15,55,8.80
2019,03,02,15,56,8.80
2019,03,02,15,57,8.70
2019,03,02,15,58,8.70
2019,03,02,16,00,8.70
2019,03,02,16,01,8.70
2019,03,02,16,02,8.70
2019,03,02,16,03,8.70
2019,03,02,16,04,8.70
2019,03,02,16,05,8.70
2019,03,02,16,06,8.70
2019,03,02,16,08,8.70
2019,03,02,16,09,8.70
2019,03,02,16,10,8.60
2019,03,02,16,11,8.60
2019,03,02,16,12,8.60
2019,03,02,16,13,8.50
2019,03,02,16,15,8.40
2019,03,02,16,16,8.40
2019,03,02,16,17,8.40
2019,03,02,16,18,8.40
2019,03,02,16,19,8.30
2019,03,02,16,20,8.20
2019,03,02,16,21,8.20
2019,03,02,16,23,8.20
2019,03,02,16,24,8.10
2019,03,02,16,26,8.00
2019,03,02,16,27,7.90
2019,03,02,16,29,7.90
2019,03,02,16,31,7.80
2019,03,02,16,32,7.80
2019,03,02,16,34,7.80
2019,03,02,16,35,7.80
2019,03,02,16,37,7.70
2019,03,02,16,39,7.70
2019,03,02,16,40,7.70
2019,03,02,16,42,7.70
2019,03,02,16,43,7.60
2019,03,02,16,44,7.60
2019,03,02,16,46,7.50
2019,03,02,16,47,7.50
2019,03,02,16,48,7.40
2019,03,02,16,50,7.40
2019,03,02,16,51,7.30
2019,03,02,16,52,7.30
2019,03,02,16,54,7.30
2019,03,02,16,55,7.30
2019,03,02,16,57,7.20
2019,03,02,16,58,7.20
2019,03,02,16,59,7.20
2019,03,02,17,00,7.10
2019,03,02,17,02,7.10
2019,03,02,17,03,7.10
2019,03,02,17,04,7.10
2019,03,02,17,06,7.10
2019,03,02,17,07,7.10
2019,03,02,17,08,7.10
2019,03,02,17,10,7.00
2019,03,02,17,12,6.90
2019,03,02,17,13,6.90
2019,03,02,17,14,6.90
2019,03,02,17,15,6.90
2019,03,02,17,17,6.90
2019,03,02,17,18,6.90
2019,03,02,17,20,6.80
2019,03,02,17,21,6.80
2019,03,02,17,22,6.80
2019,03,02,17,23,6.80
2019,03,02,17,24,6.80
2019,03,02,17,26,6.80
2019,03,02,17,28,6.80
2019,03,02,17,29,6.80
2019,03,02,17,31,6.80
2019,03,02,17,32,6.80
2019,03,02,17,33,6.80
2019,03,02,17,34,6.80
2019,03,02,17,36,6.70
2019,03,02,17,38,6.70
2019,03,02,17,39,6.70
2019,03,02,17,40,6.70
2019,03,02,17,41,6.70
2019,03,02,17,42,6.60
2019,03,02,17,44,6.60
2019,03,02,17,45,6.60
2019,03,02,17,47,6.60
2019,03,02,17,48,6.50
2019,03,02,17,50,6.50
2019,03,02,17,51,6.50
2019,03,02,17,52,6.40
2019,03,02,17,53,6.40
2019,03,02,17,55,6.40
2019,03,02,17,57,6.40
2019,03,02,17,58,6.40
2019,03,02,17,59,6.30
2019,03,02,18,01,6.30
2019,03,02,18,03,6.30
2019,03,02,18,04,6.30
2019,03,02,18,06,6.30
2019,03,02,18,07,6.20
2019,03,02,18,09,6.20
2019,03,02,18,11,6.20
2019,03,02,18,12,6.20
2019,03,02,18,14,6.10
2019,03,02,18,15,6.10
2019,03,02,18,16,6.10
2019,03,02,18,17,6.10
2019,03,02,18,18,6.10
2019,03,02,18,20,6.00
2019,03,02,18,22,5.90
2019,03,02,18,23,6.00
2019,03,02,18,25,5.90
2019,03,02,18,26,5.90
2019,03,02,18,27,5.90
2019,03,02,18,28,5.80
2019,03,02,18,30,5.80
2019,03,02,18,31,5.80
2019,03,02,18,32,5.80
2019,03,02,18,33,5.70
2019,03,02,18,34,5.70
2019,03,02,18,36,5.70
2019,03,02,18,38,5.70
2019,03,02,18,39,5.60
2019,03,02,18,41,5.60
2019,03,02,18,42,5.60
2019,03,02,18,43,5.60
2019,03,02,18,44,5.60
2019,03,02,18,45,5.60
2019,03,02,18,46,5.60
2019,03,02,18,48,5.60
2019,03,02,18,49,5.60
2019,03,02,18,50,5.60
2019,03,02,18,51,5.60
2019,03,02,18,53,5.50
2019,03,02,18,54,5.50
2019,03,02,18,56,5.50
2019,03,02,18,57,5.50
2019,03,02,18,58,5.50
2019,03,02,18,59,5.50
2019,03,02,19,00,5.50
2019,03,02,19,01,5.50
2019,03,02,19,02,5.50
2019,03,02,19,03,5.40
2019,03,02,19,04,5.40
2019,03,02,19,06,5.40
2019,03,02,19,07,5.40
2019,03,02,19,08,5.40
2019,03,02,19,09,5.40
2019,03,02,19,10,5.40
2019,03,02,19,12,5.40
2019,03,02,19,13,5.40
2019,03,02,19,14,5.40
2019,03,02,19,15,5.40
2019,03,02,19,17,5.40
2019,03,02,19,18,5.40
2019,03,02,19,19,5.30
2019,03,02,19,20,5.30
2019,03,02,19,21,5.30
2019,03,02,19,22,5.30
2019,03,02,19,24,5.20
2019,03,02,19,25,5.20
2019,03,02,19,27,5.20
2019,03,02,19,28,5.20
2019,03,02,19,30,5.20
2019,03,02,19,31,5.30
2019,03,02,19,33,5.30
2019,03,02,19,35,5.30
2019,03,02,19,36,5.30
2019,03,02,19,38,5.30
2019,03,02,19,39,5.30
2019,03,02,19,40,5.30
2019,03,02,19,42,5.30
2019,03,02,19,43,5.30
2019,03,02,19,44,5.30
2019,03,02,19,45,5.20
2019,03,02,19,47,5.20
2019,03,02,19,49,5.20
2019,03,02,19,51,5.20
2019,03,02,19,52,5.20
2019,03,02,19,53,5.20
2019,03,02,19,54,5.10
2019,03,02,19,55,5.10
2019,03,02,19,56,5.10
2019,03,02,19,57,5.10
2019,03,02,19,59,5.10
2019,03,02,20,00,5.10
2019,03,02,20,01,5.00
2019,03,02,20,03,5.00
2019,03,02,20,04,5.00
2019,03,02,20,05,4.90
2019,03,02,20,06,4.90
2019,03,02,20,08,4.90
2019,03,02,20,10,4.90
2019,03,02,20,12,4.90
2019,03,02,20,13,4.80
2019,03,02,20,14,4.80
2019,03,02,20,15,4.80
2019,03,02,20,17,4.80
2019,03,02,20,18,4.80
2019,03,02,20,19,4.80
2019,03,02,20,21,4.80
2019,03,02,20,22,4.80
2019,03,02,20,24,4.80
2019,03,02,20,25,4.80
2019,03,02,20,26,4.80
2019,03,02,20,27,4.80
2019,03,02,20,29,4.80
2019,03,02,20,30,4.80
2019,03,02,20,32,4.80
2019,03,02,20,33,4.80
2019,03,02,20,34,4.90
2019,03,02,20,35,4.90
2019,03,02,20,36,4.90
2019,03,02,20,37,4.90
2019,03,02,20,38,4.90
2019,03,02,20,40,4.90
2019,03,02,20,41,4.90
2019,03,02,20,42,4.90
2019,03,02,20,43,4.90
2019,03,02,20,44,4.90
2019,03,02,20,45,4.90
2019,03,02,20,46,4.90
2019,03,02,20,48,4.80
2019,03,02,20,49,4.80
2019,03,02,20,51,4.80
2019,03,02,20,52,4.80
2019,03,02,20,53,4.80
2019,03,02,20,54,4.70
2019,03,02,20,56,4.70
2019,03,02,20,57,4.70
2019,03,02,20,59,4.70
2019,03,02,21,00,4.60
2019,03,02,21,02,4.60
2019,03,02,21,04,4.60
2019,03,02,21,05,4.50
2019,03,02,21,06,4.50
2019,03,02,21,07,4.40
2019,03,02,21,08,4.40
2019,03,02,21,10,4.40
2019,03,02,21,11,4.30
2019,03,02,21,12,4.30
2019,03,02,21,13,4.30
2019,03,02,21,14,4.30
2019,03,02,21,15,4.30
2019,03,02,21,16,4.30
2019,03,02,21,17,4.30
2019,03,02,21,18,4.30
2019,03,02,21,19,4.30
2019,03,02,21,21,4.30
2019,03,02,21,22,4.20
2019,03,02,21,23,4.20
2019,03,02,21,24,4.20
2019,03,02,21,25,4.20
2019,03,02,21,26,4.20
2019,03,02,21,27,4.20
2019,03,02,21,29,4.20
2019,03,02,21,30,4.10
2019,03,02,21,32,4.10
2019,03,02,21,33,4.10
2019,03,02,21,34,4.10
2019,03,02,21,35,4.10
2019,03,02,21,36,4.10
2019,03,02,21,37,4.00
2019,03,02,21,38,3.90
2019,03,02,21,39,3.90
2019,03,02,21,40,3.90
2019,03,02,21,41,3.90
2019,03,02,21,42,3.90
2019,03,02,21,43,3.90
2019,03,02,21,45,3.80
2019,03,02,21,46,3.80
2019,03,02,21,47,3.80
2019,03,02,21,48,3.80
2019,03,02,21,49,3.70
2019,03,02,21,50,3.70
2019,03,02,21,51,3.70
2019,03,02,21,53,3.70
2019,03,02,21,54,3.70
2019,03,02,21,55,3.70
2019,03,02,21,56,3.60
2019,03,02,21,57,3.60
2019,03,02,21,58,3.60
2019,03,02,21,59,3.60
2019,03,02,22,00,3.60
2019,03,02,22,01,3.60
2019,03,02,22,02,3.50
2019,03,02,22,03,3.50
2019,03,02,22,05,3.50
2019,03,02,22,06,3.40
2019,03,02,22,07,3.40
2019,03,02,22,08,3.40
2019,03,02,22,09,3.40
2019,03,02,22,10,3.40
2019,03,02,22,11,3.30
2019,03,02,22,13,3.30
2019,03,02,22,14,3.30
2019,03,02,22,15,3.30
2019,03,02,22,16,3.30
2019,03,02,22,17,3.30
2019,03,02,22,18,3.30
2019,03,02,22,19,3.20
2019,03,02,22,20,3.20
2019,03,02,22,21,3.20
2019,03,02,22,22,3.20
2019,03,02,22,23,3.20
2019,03,02,22,24,3.20
2019,03,02,22,25,3.20
2019,03,02,22,26,3.20
2019,03,02,22,28,3.20
2019,03,02,22,29,3.20
2019,03,02,22,30,3.10
2019,03,02,22,32,3.10